User: anonymous   Login
Location: Andrest
(43.3200°N, 0.0641°E)
Time: 10:56:49
(UTC+00:00)
Language:

Cosmos 2341 Rocket - Orbit

View from above orbital plane
View from above orbital plane
View from above satellite
View from above satellite

Ground track
Ground track

The orbit data is extracted from the following two-line orbital elements,

1 24773U 97017B   21063.59153128  .00000000  00000-0 -16927-4 0  9993
2 24773  82.9172  88.1789 0025521 127.8318 348.9654 13.73660589196834
Epoch (UTC): 04 March 2021 14:11:48
Eccentricity: 0.0025521
inclination: 82.9172°
perigee height: 967 km
apogee height: 1005 km
right ascension of ascending node: 88.1789°
argument of perigee: 127.8318°
revolutions per day: 13.73660589
mean anomaly at epoch: 348.9654°
orbit number at epoch: 19683

The dashed part of the orbit path shows where the satellite is in the earth's shadow,  

DLR